User: anonymous   Login
Location: Wellington
(41.3000°S, 174.7830°E)
Time: 07:20:59
(UTC+13:00)
Language:

NOAA 11 - Orbit

View from above orbital plane
View from above orbital plane
View from above satellite
View from above satellite

Ground track
Ground track

The orbit data is extracted from the following two-line orbital elements,

1 19531U 88089A   19081.91647794 -.00000015 +00000-0 +13635-4 0  9997
2 19531 098.4597 120.7344 0010933 353.6041 006.4992 14.15238394573557
Epoch (UTC): 22 March 2019 21:59:43
Eccentricity: 0.0010933
inclination: 98.4597°
perigee height: 833 km
apogee height: 849 km
right ascension of ascending node: 120.7344°
argument of perigee: 353.6041°
revolutions per day: 14.15238394
mean anomaly at epoch: 6.4992°
orbit number at epoch: 57355

The dashed part of the orbit path shows where the satellite is in the earth's shadow,  

DLR